8 months, 1 week
1
0
0
0
orb21253.2l.amsat
by ray.hoad@mypbmail.com
SB KEPS @ AMSAT $ORB21253.N 2Line Orbital Elements 21253.AMSAT HR AMSAT ORBITAL ELEMENTS FOR AMATEUR SATELLITES IN NASA FORMAT FROM WA5QGD FORT WORTH,TX September 10, 2021 BID: ORB21253.N DECODE 2-LINE ELSETS WITH THE FOLLOWING KEY: 1 AAAAAU 00 0 0 BBBBB.BBBBBBBB .CCCCCCCC 00000-0 00000-0 0 DDDZ 2 AAAAA EEE.EEEE FFF.FFFF GGGGGGG HHH.HHHH III.IIII JJ.JJJJJJJJKKKKKZ KEY: A-CATALOGNUM B-EPOCHTIME C-DECAY D-ELSETNUM E-INCLINATION F-RAAN G-ECCENTRICITY H-ARGPERIGEE I-MNANOM J-MNMOTION K-ORBITNUM Z-CHECKSUM TO ALL RADIO AMATEURS BT AO-07 1 07530U 74089B 21253.41885934 -.00000042 00000-0 25672-4 0 9991 2 07530 101.8633 227.8580 0011881 218.1758 294.7914 12.53650208142377 UO-11 1 14781U 84021B 21253.45929474 .00000168 00000-0 26552-4 0 9992 2 14781 97.5974 249.1330 0009038 152.7890 207.3800 14.83321891998532 LO-19 1 20442U 90005G 21253.53253571 .00000003 00000-0 17870-4 0 9990 2 20442 98.7491 209.8056 0010624 271.7794 88.2172 14.32996490653012 HUBBLE 1 20580U 90037B 21253.33733914 .00000818 00000-0 38463-4 0 9995 2 20580 28.4691 223.3942 0002425 254.9757 223.6379 15.09729558523838 MET-2/21 1 22782U 93055A 21253.41529927 .00000018 00000-0 27184-5 0 9991 2 22782 82.5468 236.4717 0023525 55.3751 96.5711 13.83837405415279 AO-27 1 22825U 93061C 21253.59431105 -.00000011 00000-0 13922-4 0 9993 2 22825 98.9157 273.2893 0009110 141.4301 218.7532 14.30123769458156 IO-26 1 22826U 93061D 21253.61447679 -.00000006 00000-0 15709-4 0 9999 2 22826 98.9100 273.2108 0009810 129.9559 230.2486 14.30463974458407 FO-29 1 24278U 96046B 21253.55755469 -.00000004 00000-0 35469-4 0 9993 2 24278 98.5594 310.2282 0349329 289.2237 67.1417 13.53105523237754 NOAA-15 1 25338U 98030A 21253.61531422 .00000025 00000-0 28788-4 0 9992 2 25338 98.6775 281.3570 0010985 38.3207 321.8751 14.26057122213134 GO-32 1 25397U 98043D 21253.30240255 -.00000006 00000-0 17122-4 0 9998 2 25397 98.7763 198.6444 0001362 148.2511 211.8750 14.23714941203564 ISS 1 25544U 98067A 21253.54441572 .00002318 00000-0 50853-4 0 9994 2 25544 51.6438 280.6521 0003501 17.2809 142.5012 15.48622916301822 NO-44 1 26931U 01043C 21253.60816726 -.00000028 00000-0 21147-4 0 9998 2 26931 67.0509 60.6680 0005431 267.2693 92.7786 14.30631461 41377 SO-50 1 27607U 02058C 21253.61639053 .00000047 00000-0 27202-4 0 9991 2 27607 64.5545 77.9141 0051222 355.4653 4.5977 14.75785828 7076 CO-55 1 27844U 03031E 21253.59652127 .00000063 00000-0 47817-4 0 9992 2 27844 98.6817 260.5204 0009670 185.6953 174.4117 14.22331055944080 CO-57 1 27848U 03031J 21253.47435689 .00000046 00000-0 40733-4 0 9996 2 27848 98.6872 260.9593 0009289 199.9469 160.1346 14.21905432943895 RS-22 1 27939U 03042A 21253.57233099 .00000172 00000-0 39455-4 0 9990 2 27939 98.1531 30.1282 0013146 17.7063 342.4597 14.67018810960009 NOAA-18 1 28654U 05018A 21253.51224321 .00000084 00000-0 69677-4 0 9993 2 28654 98.9870 318.6866 0014852 45.7212 314.5175 14.12636700840454 CO-58 1 28895U 05043F 21253.31630190 .00000222 00000-0 51442-4 0 9996 2 28895 98.0703 24.7549 0015582 305.7330 54.2423 14.63955059846425 Falconsat-3 1 30776U 07006E 21253.41767130 .00007049 00000-0 16385-3 0 9994 2 30776 35.4337 273.8379 0002752 300.0684 59.9771 15.41665841806223 CO-65 1 32785U 08021C 21253.15330540 .00000510 00000-0 60058-4 0 9999 2 32785 97.6194 228.7464 0014531 83.2733 277.0138 14.88792972724778 AAUSAT2 1 32788U 08021F 21253.38749367 .00001515 00000-0 14078-3 0 9994 2 32788 97.5105 244.5115 0011304 353.5409 6.5665 14.95738059726551 DO-64 1 32789U 08021G 21253.01778210 .00002333 00000-0 14977-3 0 9991 2 32789 97.3710 285.1207 0010919 203.0780 156.9960 15.09363777729588 CO-66 1 32791U 08021J 21253.16397342 .00000883 00000-0 93436-4 0 9999 2 32791 97.5785 234.5817 0014413 48.6787 311.5670 14.91509365725402 RS-30 1 32953U 08025A 21253.45949109 .00000021 00000-0 80971-4 0 9993 2 32953 82.5100 358.0634 0020234 149.7536 210.4720 12.43104471603546 PRISM 1 33493U 09002B 21253.37475215 .00001398 00000-0 12429-3 0 9992 2 33493 98.1959 220.0544 0014889 10.2656 349.8866 14.97831964687032 NOAA-19 1 33591U 09005A 21253.41269852 .00000053 00000-0 53971-4 0 9992 2 33591 99.1806 276.2099 0012990 252.9750 106.9998 14.12494085648651 SRMSAT 1 37841U 11058D 21253.03239963 .00000317 00000-0 28894-4 0 9992 2 37841 19.9714 149.8744 0011982 142.9677 339.0569 14.10703167511596 HRBE 1 37855U 11061F 21253.35463092 .00001697 00000-0 87919-4 0 9993 2 37855 101.7174 220.8323 0165509 177.9694 182.2228 15.08091727538977 RS-40 1 38735U 12041C 21253.45859568 .00000023 00000-0 93841-4 0 9991 2 38735 82.4720 80.0879 0016358 261.4853 98.4377 12.42583606413749 ZACUBE-1 1 39417U 13066B 21253.41302724 .00000390 00000-0 54827-4 0 9998 2 39417 97.6006 233.3731 0057080 242.0239 117.5191 14.81587539421652 Delfi-N3xt 1 39428U 13066N 21253.27679830 .00000698 00000-0 11678-3 0 9996 2 39428 97.7839 195.4012 0121044 92.8785 268.6281 14.68094386417413 GOMX-1 1 39430U 13066Q 21253.60386343 .00000199 00000-0 44951-4 0 9997 2 39430 97.8097 171.7790 0149482 206.3060 153.0497 14.59667920415466 LO-74 1 39440U 13066AA 21253.37960105 .00000491 00000-0 74671-4 0 9993 2 39440 97.6847 218.5710 0078863 320.9646 38.5888 14.76311101418951 AO-73 1 39444U 13066AE 21253.41226319 .00000475 00000-0 64041-4 0 9996 2 39444 97.5908 235.7509 0056232 231.6481 127.9673 14.82509831420022 SPROUT 1 39770U 14029E 21253.31023032 .00001098 00000-0 12386-3 0 9990 2 39770 97.9219 4.5497 0007699 292.6056 67.4335 14.88622817395962 DTUSAT-2 1 40030U 14033W 21253.22687829 .00000523 00000-0 61527-4 0 9990 2 40030 97.9151 180.4566 0010344 255.1245 104.8827 14.89068967391930 EO-80 1 40032U 14033Y 21252.99085164 .00000453 00000-0 54125-4 0 9997 2 40032 97.9158 180.2286 0010251 257.0302 102.9771 14.89028253391872 HODOYOSHI-1 1 40299U 14070B 21253.47620463 .00001310 00000-0 55337-4 0 9993 2 40299 97.2802 324.7389 0014249 52.2655 4.4901 15.24914970380376 FIREBIRD FU3 1 40377U 15003B 21253.25308778 .00005579 00000-0 20113-3 0 9999 2 40377 99.1110 52.3468 0115068 248.4264 110.4674 15.23037306365695 FIREBIRD FU4 1 40378U 15003C 21253.42367480 .00004988 00000-0 17994-3 0 9990 2 40378 99.1117 52.7087 0115152 247.6358 111.2638 15.23091338365721 GRIFEX 1 40379U 15003D 21253.41729431 .00003100 00000-0 12649-3 0 9995 2 40379 99.1076 41.2712 0126077 282.4073 76.3070 15.18511782365076 NO-84 1 40654U 15025D 21252.31456697 .00055176 11459-4 31571-3 0 1423 2 40654 54.9776 3.7993 0060361 291.7148 67.7579 15.76770604 20251 XW-2A 1 40903U 15049E 21253.43236494 .00004985 00000-0 10376-3 0 9999 2 40903 97.2278 307.6535 0013686 68.5973 348.0371 15.45982001335927 XW-2C 1 40906U 15049H 21253.47357194 .00001420 00000-0 75334-4 0 9994 2 40906 97.4890 254.7851 0012725 251.3682 261.7440 15.16936584330451 XW-2D 1 40907U 15049J 21253.58020988 .00001341 00000-0 70664-4 0 9998 2 40907 97.4872 254.7137 0012144 246.4281 261.9778 15.17281735330508 LILACSAT-2 1 40908U 15049K 21253.46034733 .00000823 00000-0 48176-4 0 9996 2 40908 97.5074 252.3153 0014098 266.6206 247.6401 15.14555300330094 XW-2E 1 40909U 15049L 21253.46074618 .00002169 00000-0 10423-3 0 9991 2 40909 97.4668 258.7142 0011636 229.6071 289.5653 15.19859330330847 XW-2F 1 40910U 15049M 21253.49067661 .00002144 00000-0 10449-3 0 9997 2 40910 97.4741 257.8280 0012566 230.2872 281.5456 15.19358454330635 XW-2B 1 40911U 15049N 21253.45747719 .00001448 00000-0 76173-4 0 9996 2 40911 97.4875 255.2617 0012148 248.1182 269.2989 15.17196361330378 DCBB 1 40912U 15049P 21253.47756332 .00002419 00000-0 10902-3 0 9996 2 40912 97.4450 262.1997 0013239 198.5134 318.7002 15.21939006331129 TW-1A 1 40928U 15051D 21253.57470245 .00008325 00000-0 16705-3 0 9992 2 40928 97.0728 276.4666 0008668 354.5295 162.5682 15.46889429334844 IO-86 1 40931U 15052B 21252.69813206 .00000692 00000-0 72513-5 0 9997 2 40931 6.0024 11.5130 0012564 158.2527 201.8557 14.76688015321774 ATHENOXAT-1 1 41168U 15077C 21253.55029685 .00003799 00000-0 15569-3 0 9990 2 41168 14.9905 355.1988 0010735 282.7825 183.1638 15.16074015317718 ChubuSat-2 1 41338U 16012B 21252.74783532 .00000598 00000-0 39441-4 0 9997 2 41338 31.0041 9.8613 0013674 249.6468 110.2699 15.00595565305273 ChubuSat-3 1 41339U 16012C 21253.49435869 .00000545 00000-0 35185-4 0 9991 2 41339 31.0130 2.2574 0013586 265.0254 94.8840 15.00738803305384 Horyu-4 1 41340U 16012D 21253.28658157 .00000996 00000-0 67525-4 0 9990 2 41340 31.0060 346.0841 0013803 295.7931 64.1280 15.02002722305551
[email protected]
